Time,TemperatureF,DewpointF,PressureIn,WindDirection,WindDirectionDegrees,WindSpeedMPH,WindSpeedGustMPH,Humidity,HourlyPrecipIn,Conditions,Clouds,dailyrainin,SoftwareType,DateUTC
2013-02-19 00:00:00,40.4,14.2,30.06,SSE,157,5.4,16.3,34,0.00,,---,0.00,VWS V14.00,2013-02-19 05:00:00,
2013-02-19 00:01:00,40.4,14.2,30.06,SE,141,3.6,15.8,34,0.00,,---,0.00,VWS V14.00,2013-02-19 05:01:00,
2013-02-19 00:03:00,40.2,14.1,30.06,South,176,4.0,16.3,34,0.00,,---,0.00,VWS V14.00,2013-02-19 05:03:00,
2013-02-19 00:08:00,40.0,14.6,30.06,SSE,147,2.7,16.3,35,0.00,,---,0.00,VWS V14.00,2013-02-19 05:08:00,
2013-02-19 00:14:00,39.8,14.4,30.09,SE,141,3.1,14.9,35,0.00,,---,0.00,VWS V14.00,2013-02-19 05:14:00,
2013-02-19 00:19:00,39.6,14.9,30.09,SSW,196,3.1,15.4,36,0.00,,---,0.00,VWS V14.00,2013-02-19 05:19:00,
2013-02-19 00:24:00,39.5,14.7,30.09,WSW,240,2.7,15.4,36,0.00,,---,0.00,VWS V14.00,2013-02-19 05:24:00,
2013-02-19 00:29:00,39.3,15.2,30.06,SSE,154,3.6,15.4,37,0.00,,---,0.00,VWS V14.00,2013-02-19 05:29:00,
2013-02-19 00:34:00,39.1,15.0,30.06,South,183,0.0,14.9,37,0.00,,---,0.00,VWS V14.00,2013-02-19 05:34:00,
2013-02-19 00:39:00,38.9,14.9,30.06,SSE,156,2.7,15.4,37,0.00,,---,0.00,VWS V14.00,2013-02-19 05:39:00,
2013-02-19 00:44:00,38.7,14.7,30.06,SSE,168,3.6,15.4,37,0.00,,---,0.00,VWS V14.00,2013-02-19 05:44:00,
2013-02-19 00:50:00,38.7,14.7,30.06,SSE,155,2.7,15.4,37,0.00,,---,0.00,VWS V14.00,2013-02-19 05:50:00,
2013-02-19 00:55:00,38.6,15.2,30.06,SE,139,3.1,15.8,38,0.00,,---,0.00,VWS V14.00,2013-02-19 05:55:00,
2013-02-19 01:00:00,38.4,15.0,30.06,SSE,147,0.0,15.8,38,0.00,,---,0.00,VWS V14.00,2013-02-19 06:00:00,
2013-02-19 01:05:00,38.4,15.0,30.06,SE,144,2.7,13.6,38,0.00,,---,0.00,VWS V14.00,2013-02-19 06:05:00,
2013-02-19 01:10:00,38.4,15.0,30.06,South,186,2.7,12.7,38,0.00,,---,0.00,VWS V14.00,2013-02-19 06:10:00,
2013-02-19 01:15:00,38.2,14.8,30.03,SSE,147,3.1,14.0,38,0.00,,---,0.00,VWS V14.00,2013-02-19 06:15:00,
2013-02-19 01:20:00,38.0,15.3,30.03,South,170,2.7,12.7,39,0.00,,---,0.00,VWS V14.00,2013-02-19 06:20:00,
2013-02-19 01:25:00,37.8,15.1,30.03,South,178,0.0,13.6,39,0.00,,---,0.00,VWS V14.00,2013-02-19 06:25:00,
2013-02-19 01:30:00,37.8,15.1,30.03,SSE,150,3.1,13.6,39,0.00,,---,0.00,VWS V14.00,2013-02-19 06:30:00,
2013-02-19 01:36:00,37.7,14.9,30.03,SSE,153,0.0,14.0,39,0.00,,---,0.00,VWS V14.00,2013-02-19 06:36:00,
2013-02-19 01:41:00,37.7,14.9,30.03,SE,128,0.0,10.0,39,0.00,,---,0.00,VWS V14.00,2013-02-19 06:41:00,
2013-02-19 01:46:00,37.7,14.9,30.00,SSE,163,2.2,13.1,39,0.00,,---,0.00,VWS V14.00,2013-02-19 06:46:00,
2013-02-19 01:51:00,37.8,15.1,30.00,South,175,0.0,14.0,39,0.00,,---,0.00,VWS V14.00,2013-02-19 06:51:00,
2013-02-19 01:56:00,37.8,15.1,30.00,SW,235,0.0,14.0,39,0.00,,---,0.00,VWS V14.00,2013-02-19 06:56:00,
2013-02-19 02:01:00,37.8,15.1,30.00,ESE,108,0.0,14.5,39,0.00,,---,0.00,VWS V14.00,2013-02-19 07:01:00,
2013-02-19 02:07:00,37.8,15.1,30.00,SSE,165,0.0,14.5,39,0.00,,---,0.00,VWS V14.00,2013-02-19 07:07:00,
2013-02-19 02:12:00,37.8,15.1,30.00,SSE,156,0.0,13.6,39,0.00,,---,0.00,VWS V14.00,2013-02-19 07:12:00,
2013-02-19 02:17:00,37.8,15.1,30.00,SSE,164,0.0,13.6,39,0.00,,---,0.00,VWS V14.00,2013-02-19 07:17:00,
2013-02-19 02:22:00,37.8,15.1,30.00,SSW,212,0.0,16.3,39,0.00,,---,0.00,VWS V14.00,2013-02-19 07:22:00,
2013-02-19 02:27:00,38.0,15.3,30.00,South,174,0.0,16.3,39,0.00,,---,0.00,VWS V14.00,2013-02-19 07:27:00,
2013-02-19 02:32:00,38.2,15.4,30.00,South,171,2.2,14.9,39,0.00,,---,0.00,VWS V14.00,2013-02-19 07:32:00,
2013-02-19 02:37:00,38.2,15.4,30.00,SSE,147,0.0,14.9,39,0.00,,---,0.00,VWS V14.00,2013-02-19 07:37:00,
2013-02-19 02:42:00,38.4,15.6,30.00,WSW,246,3.1,13.6,39,0.00,,---,0.00,VWS V14.00,2013-02-19 07:42:00,
2013-02-19 02:48:00,38.6,15.8,30.00,South,191,2.7,15.8,39,0.00,,---,0.00,VWS V14.00,2013-02-19 07:48:00,
2013-02-19 02:53:00,38.7,15.9,30.00,South,190,4.0,14.0,39,0.00,,---,0.00,VWS V14.00,2013-02-19 07:53:00,
2013-02-19 02:58:00,38.7,15.9,29.97,WNW,290,2.7,15.8,39,0.00,,---,0.00,VWS V14.00,2013-02-19 07:58:00,
2013-02-19 03:03:00,38.9,16.1,29.97,West,262,0.0,13.1,39,0.00,,---,0.00,VWS V14.00,2013-02-19 08:03:00,
2013-02-19 03:08:00,39.1,16.2,29.97,SE,143,3.6,14.0,39,0.00,,---,0.00,VWS V14.00,2013-02-19 08:08:00,
2013-02-19 03:13:00,38.9,16.1,29.97,South,186,2.2,18.7,39,0.00,,---,0.00,VWS V14.00,2013-02-19 08:13:00,
2013-02-19 03:18:00,38.9,16.1,29.97,South,172,4.0,18.7,39,0.00,,---,0.00,VWS V14.00,2013-02-19 08:18:00,
2013-02-19 03:23:00,38.9,16.1,29.97,SSW,210,0.0,14.9,39,0.00,,---,0.00,VWS V14.00,2013-02-19 08:23:00,
2013-02-19 03:28:00,38.9,16.1,29.97,South,179,2.7,15.8,39,0.00,,---,0.00,VWS V14.00,2013-02-19 08:28:00,
2013-02-19 03:34:00,39.1,16.2,29.97,WSW,248,3.6,15.4,39,0.00,,---,0.00,VWS V14.00,2013-02-19 08:34:00,
2013-02-19 03:39:00,39.1,16.8,29.97,SSW,197,3.6,15.4,40,0.00,,---,0.00,VWS V14.00,2013-02-19 08:39:00,
2013-02-19 03:44:00,39.1,16.8,29.97,WSW,251,3.6,14.5,40,0.00,,---,0.00,VWS V14.00,2013-02-19 08:44:00,
2013-02-19 03:49:00,39.1,16.8,29.97,SW,227,0.0,14.5,40,0.00,,---,0.00,VWS V14.00,2013-02-19 08:49:00,
2013-02-19 03:54:00,39.1,16.8,29.97,NW,306,0.0,13.1,40,0.00,,---,0.00,VWS V14.00,2013-02-19 08:54:00,
2013-02-19 03:59:00,39.3,17.0,29.97,West,280,0.0,13.1,40,0.00,,---,0.00,VWS V14.00,2013-02-19 08:59:00,
2013-02-19 04:05:00,39.3,17.0,29.97,WSW,250,0.0,13.6,40,0.00,,---,0.00,VWS V14.00,2013-02-19 09:05:00,
2013-02-19 04:10:00,39.3,17.6,29.97,WSW,253,0.0,13.6,41,0.00,,---,0.00,VWS V14.00,2013-02-19 09:10:00,
2013-02-19 04:15:00,39.3,17.0,29.97,SW,233,0.0,10.0,40,0.00,,---,0.00,VWS V14.00,2013-02-19 09:15:00,
2013-02-19 04:20:00,39.3,18.1,29.97,SE,143,0.0,10.0,42,0.00,,---,0.00,VWS V14.00,2013-02-19 09:20:00,
2013-02-19 04:25:00,39.3,17.0,29.97,SE,131,0.0,10.0,40,0.00,,---,0.00,VWS V14.00,2013-02-19 09:25:00,
2013-02-19 04:30:00,39.3,17.6,29.97,SE,131,0.0,10.0,41,0.00,,---,0.00,VWS V14.00,2013-02-19 09:30:00,
2013-02-19 04:35:00,39.3,17.0,29.97,SE,131,0.0,10.0,40,0.00,,---,0.00,VWS V14.00,2013-02-19 09:35:00,
2013-02-19 04:40:00,39.3,17.6,29.97,SE,131,0.0,10.0,41,0.00,,---,0.00,VWS V14.00,2013-02-19 09:40:00,
2013-02-19 04:45:00,39.3,17.6,29.97,SE,131,0.0,10.0,41,0.00,,---,0.00,VWS V14.00,2013-02-19 09:45:00,
2013-02-19 04:50:00,39.3,17.6,29.97,SE,131,0.0,10.0,41,0.00,,---,0.00,VWS V14.00,2013-02-19 09:50:00,
2013-02-19 04:56:00,39.3,17.6,29.97,SE,131,0.0,10.0,41,0.00,,---,0.00,VWS V14.00,2013-02-19 09:56:00,
2013-02-19 05:01:00,39.3,17.6,29.97,SE,131,0.0,10.0,41,0.00,,---,0.00,VWS V14.00,2013-02-19 10:01:00,
2013-02-19 05:06:00,39.3,17.6,29.97,SE,132,0.0,10.0,41,0.00,,---,0.00,VWS V14.00,2013-02-19 10:06:00,
2013-02-19 05:11:00,39.1,18.0,29.97,SE,131,0.0,10.0,42,0.00,,---,0.00,VWS V14.00,2013-02-19 10:11:00,
2013-02-19 05:16:00,39.1,18.0,29.97,SE,131,0.0,10.0,42,0.00,,---,0.00,VWS V14.00,2013-02-19 10:16:00,
2013-02-19 05:21:00,39.1,18.5,29.97,SE,131,0.0,10.0,43,0.00,,---,0.00,VWS V14.00,2013-02-19 10:21:00,
2013-02-19 05:26:00,39.1,18.0,29.97,SE,131,0.0,10.0,42,0.00,,---,0.00,VWS V14.00,2013-02-19 10:26:00,
2013-02-19 05:31:00,39.1,18.5,29.94,SE,131,0.0,10.0,43,0.00,,---,0.00,VWS V14.00,2013-02-19 10:31:00,
2013-02-19 05:36:00,39.1,18.0,29.94,SE,132,0.0,10.0,42,0.00,,---,0.00,VWS V14.00,2013-02-19 10:36:00,
2013-02-19 05:42:00,39.1,18.5,29.94,SE,131,0.0,10.0,43,0.00,,---,0.00,VWS V14.00,2013-02-19 10:42:00,
2013-02-19 05:47:00,39.3,18.7,29.97,SE,131,0.0,10.0,43,0.00,,---,0.00,VWS V14.00,2013-02-19 10:47:00,
2013-02-19 05:52:00,39.3,19.2,29.97,SE,132,0.0,10.0,44,0.00,,---,0.00,VWS V14.00,2013-02-19 10:52:00,
2013-02-19 05:57:00,39.3,19.2,29.97,SE,132,0.0,10.0,44,0.00,,---,0.00,VWS V14.00,2013-02-19 10:57:00,
2013-02-19 06:02:00,39.3,20.2,29.97,SE,145,0.0,10.0,46,0.00,,---,0.00,VWS V14.00,2013-02-19 11:02:00,
2013-02-19 06:07:00,39.1,21.6,29.97,SE,145,0.0,10.0,49,0.00,,---,0.00,VWS V14.00,2013-02-19 11:07:00,
2013-02-19 06:12:00,38.9,23.3,29.94,SE,145,0.0,10.0,53,0.00,,---,0.00,VWS V14.00,2013-02-19 11:12:00,
2013-02-19 06:17:00,38.6,24.2,29.94,SE,126,0.0,13.1,56,0.00,,---,0.00,VWS V14.00,2013-02-19 11:17:00,
2013-02-19 06:22:00,38.2,26.0,29.94,SE,127,0.0,10.0,61,0.00,,---,0.00,VWS V14.00,2013-02-19 11:22:00,
2013-02-19 06:28:00,37.8,26.8,29.94,SE,127,0.0,10.0,64,0.00,,---,0.00,VWS V14.00,2013-02-19 11:28:00,
2013-02-19 06:33:00,37.5,27.9,29.94,SE,127,0.0,10.0,68,0.00,,---,0.04,VWS V14.00,2013-02-19 11:33:00,
2013-02-19 06:38:00,37.3,28.1,29.94,SE,127,0.0,10.0,69,0.00,,---,0.04,VWS V14.00,2013-02-19 11:38:00,
2013-02-19 06:43:00,37.3,28.4,29.94,SE,126,0.0,10.0,70,0.00,,---,0.04,VWS V14.00,2013-02-19 11:43:00,
2013-02-19 06:48:00,37.3,30.1,29.94,SE,127,0.0,10.0,75,0.00,,---,0.04,VWS V14.00,2013-02-19 11:48:00,
2013-02-19 06:53:00,37.1,30.9,29.94,SE,127,0.0,10.0,78,0.00,,---,0.04,VWS V14.00,2013-02-19 11:53:00,
2013-02-19 06:58:00,36.9,31.0,29.94,SE,127,0.0,10.0,79,0.00,,---,0.04,VWS V14.00,2013-02-19 11:58:00,
2013-02-19 07:04:00,36.9,31.7,29.94,SE,127,0.0,10.0,81,0.00,,---,0.04,VWS V14.00,2013-02-19 12:04:00,
2013-02-19 07:09:00,36.9,31.7,29.94,SE,126,0.0,10.0,81,0.00,,---,0.04,VWS V14.00,2013-02-19 12:09:00,
2013-02-19 07:14:00,36.9,32.3,29.94,SE,127,0.0,10.0,83,0.04,,---,0.12,VWS V14.00,2013-02-19 12:14:00,
2013-02-19 07:19:00,36.9,32.0,29.94,SE,127,0.0,10.0,82,0.04,,---,0.12,VWS V14.00,2013-02-19 12:19:00,
2013-02-19 07:24:00,36.9,32.0,29.94,SE,127,0.0,10.0,82,0.04,,---,0.12,VWS V14.00,2013-02-19 12:24:00,
2013-02-19 07:29:00,36.9,32.3,29.94,SE,126,0.0,10.0,83,0.04,,---,0.12,VWS V14.00,2013-02-19 12:29:00,
2013-02-19 07:34:00,37.1,32.7,29.94,SE,127,0.0,10.0,84,0.04,,---,0.12,VWS V14.00,2013-02-19 12:34:00,
2013-02-19 07:39:00,36.9,32.6,29.94,SE,126,0.0,10.0,84,0.04,,---,0.12,VWS V14.00,2013-02-19 12:39:00,
2013-02-19 07:45:00,36.9,32.6,29.94,SE,127,0.0,10.0,84,0.08,,---,0.16,VWS V14.00,2013-02-19 12:45:00,
2013-02-19 07:50:00,37.1,32.7,29.94,SE,127,0.0,10.0,84,0.08,,---,0.16,VWS V14.00,2013-02-19 12:50:00,
2013-02-19 07:55:00,37.1,33.0,29.94,SE,127,0.0,10.0,85,0.08,,---,0.16,VWS V14.00,2013-02-19 12:55:00,
2013-02-19 08:00:00,37.1,33.3,29.94,SE,127,0.0,10.0,86,0.08,,---,0.16,VWS V14.00,2013-02-19 13:00:00,
2013-02-19 08:05:00,37.1,33.3,29.94,SE,127,0.0,10.0,86,0.08,,---,0.16,VWS V14.00,2013-02-19 13:05:00,
2013-02-19 08:10:00,37.1,33.6,29.94,SE,127,0.0,10.0,87,0.08,,---,0.16,VWS V14.00,2013-02-19 13:10:00,
2013-02-19 08:15:00,37.1,33.6,29.91,SE,127,0.0,10.0,87,0.08,,---,0.16,VWS V14.00,2013-02-19 13:15:00,
2013-02-19 08:20:00,37.1,33.6,29.91,SE,133,0.0,10.0,87,0.08,,---,0.16,VWS V14.00,2013-02-19 13:20:00,
2013-02-19 08:25:00,37.3,34.1,29.91,SSE,157,0.0,10.0,88,0.08,,---,0.16,VWS V14.00,2013-02-19 13:25:00,
2013-02-19 08:30:00,37.5,34.3,29.91,SSE,158,0.0,10.0,88,0.08,,---,0.16,VWS V14.00,2013-02-19 13:30:00,
2013-02-19 08:35:00,37.5,34.5,29.91,West,265,0.0,10.0,89,0.08,,---,0.16,VWS V14.00,2013-02-19 13:35:00,
2013-02-19 08:41:00,37.5,34.8,29.91,South,187,0.0,12.2,90,0.08,,---,0.16,VWS V14.00,2013-02-19 13:41:00,
2013-02-19 08:46:00,37.7,35.3,29.91,SSW,211,0.0,14.0,91,0.08,,---,0.16,VWS V14.00,2013-02-19 13:46:00,
2013-02-19 08:51:00,37.7,35.5,29.91,South,185,0.0,10.0,92,0.08,,---,0.16,VWS V14.00,2013-02-19 13:51:00,
2013-02-19 08:56:00,37.8,36.0,29.91,SSW,197,2.2,13.6,93,0.08,,---,0.16,VWS V14.00,2013-02-19 13:56:00,
2013-02-19 09:01:00,37.8,36.0,29.91,SSE,151,3.1,13.1,93,0.04,,---,0.20,VWS V14.00,2013-02-19 14:01:00,
2013-02-19 09:06:00,38.0,36.5,29.91,SSW,205,0.0,13.1,94,0.04,,---,0.20,VWS V14.00,2013-02-19 14:06:00,
2013-02-19 09:11:00,38.0,36.5,29.91,South,186,0.0,10.0,94,0.04,,---,0.20,VWS V14.00,2013-02-19 14:11:00,
2013-02-19 09:17:00,38.2,36.6,29.91,SSE,156,3.1,15.4,94,0.04,,---,0.20,VWS V14.00,2013-02-19 14:17:00,
2013-02-19 09:22:00,38.4,37.1,29.91,South,190,2.7,13.6,95,0.04,,---,0.20,VWS V14.00,2013-02-19 14:22:00,
2013-02-19 09:27:00,38.4,37.1,29.91,SE,128,5.8,16.3,95,0.04,,---,0.20,VWS V14.00,2013-02-19 14:27:00,
2013-02-19 09:32:00,38.4,37.1,29.88,SE,141,2.7,16.3,95,0.04,,---,0.20,VWS V14.00,2013-02-19 14:32:00,
2013-02-19 09:37:00,38.4,37.3,29.88,SSE,157,4.0,16.3,96,0.04,,---,0.20,VWS V14.00,2013-02-19 14:37:00,
2013-02-19 09:42:00,38.6,37.5,29.88,SSW,201,3.6,15.4,96,0.04,,---,0.20,VWS V14.00,2013-02-19 14:42:00,
2013-02-19 09:47:00,38.7,37.7,29.88,SSE,166,2.2,15.4,96,0.04,,---,0.20,VWS V14.00,2013-02-19 14:47:00,
2013-02-19 09:52:00,38.9,37.9,29.88,SE,143,2.7,12.7,96,0.04,,---,0.20,VWS V14.00,2013-02-19 14:52:00,
2013-02-19 09:57:00,39.1,38.1,29.88,South,171,3.6,14.0,96,0.04,,---,0.20,VWS V14.00,2013-02-19 14:57:00,
2013-02-19 10:03:00,39.5,38.4,29.88,SSE,152,0.0,15.4,96,0.04,,---,0.20,VWS V14.00,2013-02-19 15:03:00,
2013-02-19 10:08:00,39.6,38.9,29.88,SW,235,0.0,15.4,97,0.04,,---,0.20,VWS V14.00,2013-02-19 15:08:00,
2013-02-19 10:13:00,39.6,38.6,29.88,South,182,0.0,12.2,96,0.04,,---,0.20,VWS V14.00,2013-02-19 15:13:00,
2013-02-19 10:18:00,39.8,38.8,29.88,SSW,195,2.2,13.6,96,0.04,,---,0.20,VWS V14.00,2013-02-19 15:18:00,
2013-02-19 10:23:00,40.0,38.7,29.88,SE,139,3.1,14.9,95,0.04,,---,0.20,VWS V14.00,2013-02-19 15:23:00,
2013-02-19 10:28:00,40.2,38.9,29.88,WNW,291,2.2,14.9,95,0.04,,---,0.20,VWS V14.00,2013-02-19 15:28:00,
2013-02-19 10:33:00,40.2,38.6,29.88,SSE,166,0.0,12.7,94,0.04,,---,0.20,VWS V14.00,2013-02-19 15:33:00,
2013-02-19 10:38:00,40.5,39.0,29.88,NW,322,0.0,12.7,94,0.04,,---,0.20,VWS V14.00,2013-02-19 15:38:00,
2013-02-19 10:44:00,40.4,38.5,29.88,WSW,244,2.2,13.6,93,0.04,,---,0.20,VWS V14.00,2013-02-19 15:44:00,
2013-02-19 10:49:00,40.5,38.4,29.88,WSW,244,0.0,13.6,92,0.04,,---,0.20,VWS V14.00,2013-02-19 15:49:00,
2013-02-19 10:54:00,40.7,38.9,29.88,SW,227,4.0,14.0,93,0.04,,---,0.20,VWS V14.00,2013-02-19 15:54:00,
2013-02-19 10:59:00,40.7,38.3,29.85,West,281,3.6,14.0,91,0.04,,---,0.20,VWS V14.00,2013-02-19 15:59:00,
2013-02-19 11:04:00,40.7,38.6,29.85,SSW,193,2.7,12.7,92,0.04,,---,0.20,VWS V14.00,2013-02-19 16:04:00,
2013-02-19 11:09:00,40.9,38.8,29.85,ENE,65,0.0,15.8,92,0.00,,---,0.20,VWS V14.00,2013-02-19 16:09:00,
2013-02-19 11:14:00,40.7,38.3,29.88,West,265,0.0,13.1,91,0.00,,---,0.20,VWS V14.00,2013-02-19 16:14:00,
2013-02-19 11:19:00,41.1,38.7,29.88,West,259,0.0,14.0,91,0.00,,---,0.23,VWS V14.00,2013-02-19 16:19:00,
2013-02-19 11:24:00,41.1,38.7,29.88,WSW,258,0.0,10.0,91,0.00,,---,0.23,VWS V14.00,2013-02-19 16:24:00,
2013-02-19 11:29:00,41.1,38.7,29.88,West,274,0.0,12.7,91,0.00,,---,0.23,VWS V14.00,2013-02-19 16:29:00,
2013-02-19 11:34:00,41.3,38.5,29.88,NNE,15,0.0,12.7,90,0.00,,---,0.23,VWS V14.00,2013-02-19 16:34:00,
2013-02-19 11:40:00,41.4,38.7,29.88,South,185,0.0,12.7,90,0.00,,---,0.23,VWS V14.00,2013-02-19 16:40:00,
2013-02-19 11:45:00,41.4,38.5,29.88,WSW,257,0.0,12.7,89,0.00,,---,0.23,VWS V14.00,2013-02-19 16:45:00,
2013-02-19 11:50:00,41.4,37.6,29.88,SSE,147,0.0,10.0,86,0.00,,---,0.23,VWS V14.00,2013-02-19 16:50:00,
2013-02-19 11:55:00,41.8,37.9,29.88,WNW,299,0.0,14.0,86,0.00,,---,0.23,VWS V14.00,2013-02-19 16:55:00,
2013-02-19 12:00:00,41.8,37.9,29.85,SSE,162,0.0,13.1,86,0.00,,---,0.23,VWS V14.00,2013-02-19 17:00:00,
2013-02-19 12:05:00,42.0,38.1,29.85,NW,310,0.0,18.1,86,0.00,,---,0.23,VWS V14.00,2013-02-19 17:05:00,
2013-02-19 12:10:00,41.8,37.3,29.85,NW,313,3.1,13.1,84,0.00,,---,0.23,VWS V14.00,2013-02-19 17:10:00,
2013-02-19 12:15:00,42.0,37.2,29.85,NE,56,0.0,14.0,83,0.00,,---,0.23,VWS V14.00,2013-02-19 17:15:00,
2013-02-19 12:20:00,42.3,38.2,29.85,SE,124,0.0,10.0,85,0.00,,---,0.23,VWS V14.00,2013-02-19 17:20:00,
2013-02-19 12:25:00,42.5,38.3,29.85,West,262,2.7,13.1,85,0.00,,---,0.23,VWS V14.00,2013-02-19 17:25:00,
2013-02-19 12:30:00,42.7,37.9,29.85,WNW,299,0.0,10.0,83,0.00,,---,0.23,VWS V14.00,2013-02-19 17:30:00,
2013-02-19 12:35:00,42.7,37.3,29.85,SW,225,0.0,12.7,81,0.00,,---,0.23,VWS V14.00,2013-02-19 17:35:00,
2013-02-19 12:40:00,43.1,38.3,29.85,South,169,2.7,15.4,83,0.00,,---,0.23,VWS V14.00,2013-02-19 17:40:00,
2013-02-19 12:46:00,43.2,38.4,29.82,West,260,0.0,15.4,83,0.00,,---,0.23,VWS V14.00,2013-02-19 17:46:00,
2013-02-19 12:51:00,43.6,38.8,29.82,South,176,0.0,10.0,83,0.00,,---,0.23,VWS V14.00,2013-02-19 17:51:00,
2013-02-19 12:56:00,43.2,37.2,29.82,WNW,283,0.0,13.6,79,0.00,,---,0.23,VWS V14.00,2013-02-19 17:56:00,
2013-02-19 13:01:00,43.4,37.3,29.82,West,273,0.0,13.1,79,0.00,,---,0.23,VWS V14.00,2013-02-19 18:01:00,
2013-02-19 13:06:00,43.8,38.3,29.82,WNW,286,2.7,13.1,81,0.00,,---,0.23,VWS V14.00,2013-02-19 18:06:00,
2013-02-19 13:11:00,43.8,37.4,29.82,WSW,257,0.0,13.1,78,0.00,,---,0.23,VWS V14.00,2013-02-19 18:11:00,
2013-02-19 13:16:00,44.3,38.2,29.82,NW,326,0.0,13.1,79,0.00,,---,0.23,VWS V14.00,2013-02-19 18:16:00,
2013-02-19 13:21:00,44.3,37.6,29.82,South,189,0.0,10.0,77,0.00,,---,0.23,VWS V14.00,2013-02-19 18:21:00,
2013-02-19 13:26:00,44.3,36.9,29.82,South,169,0.0,14.0,75,0.00,,---,0.23,VWS V14.00,2013-02-19 18:26:00,
2013-02-19 13:31:00,44.3,36.9,29.79,East,93,0.0,13.6,75,0.00,,---,0.23,VWS V14.00,2013-02-19 18:31:00,
2013-02-19 13:36:00,44.9,38.1,29.79,NW,320,0.0,14.0,77,0.00,,---,0.23,VWS V14.00,2013-02-19 18:36:00,
2013-02-19 13:41:00,44.7,37.6,29.79,West,275,4.0,14.0,76,0.00,,---,0.23,VWS V14.00,2013-02-19 18:41:00,
2013-02-19 13:47:00,44.9,37.8,29.79,SW,229,0.0,14.0,76,0.00,,---,0.23,VWS V14.00,2013-02-19 18:47:00,
2013-02-19 13:52:00,45.0,37.9,29.79,NNW,343,4.5,14.9,76,0.00,,---,0.23,VWS V14.00,2013-02-19 18:52:00,
2013-02-19 13:57:00,44.9,37.4,29.79,WNW,300,5.4,17.2,75,0.00,,---,0.23,VWS V14.00,2013-02-19 18:57:00,
2013-02-19 14:02:00,45.2,38.5,29.79,West,273,0.0,14.0,77,0.00,,---,0.23,VWS V14.00,2013-02-19 19:02:00,
2013-02-19 14:07:00,45.6,38.1,29.79,South,174,0.0,16.7,75,0.00,,---,0.23,VWS V14.00,2013-02-19 19:07:00,
2013-02-19 14:12:00,45.8,37.6,29.79,WSW,251,0.0,15.8,73,0.00,,---,0.23,VWS V14.00,2013-02-19 19:12:00,
2013-02-19 14:17:00,45.9,36.7,29.79,NW,323,0.0,15.8,70,0.00,,---,0.23,VWS V14.00,2013-02-19 19:17:00,
2013-02-19 14:22:00,46.3,38.5,29.79,SSW,201,2.7,16.3,74,0.00,,---,0.23,VWS V14.00,2013-02-19 19:22:00,
2013-02-19 14:27:00,46.3,36.3,29.76,NE,49,4.0,16.3,68,0.00,,---,0.23,VWS V14.00,2013-02-19 19:27:00,
2013-02-19 14:32:00,46.7,37.0,29.76,NNW,331,0.0,14.9,69,0.00,,---,0.23,VWS V14.00,2013-02-19 19:32:00,
2013-02-19 14:38:00,46.5,35.8,29.76,WSW,252,4.0,17.6,66,0.00,,---,0.23,VWS V14.00,2013-02-19 19:38:00,
2013-02-19 14:43:00,47.2,37.2,29.76,SSE,165,2.2,14.9,68,0.00,,---,0.23,VWS V14.00,2013-02-19 19:43:00,
2013-02-19 14:48:00,47.6,36.4,29.76,WSW,239,3.6,17.6,65,0.00,,---,0.23,VWS V14.00,2013-02-19 19:48:00,
2013-02-19 14:53:00,47.7,35.4,29.76,WSW,252,4.0,14.0,62,0.00,,---,0.23,VWS V14.00,2013-02-19 19:53:00,
2013-02-19 14:58:00,48.1,35.7,29.76,WNW,286,2.7,16.3,62,0.00,,---,0.23,VWS V14.00,2013-02-19 19:58:00,
2013-02-19 15:03:00,48.3,36.7,29.76,West,275,0.0,14.0,64,0.00,,---,0.23,VWS V14.00,2013-02-19 20:03:00,
2013-02-19 15:08:00,48.6,35.4,29.76,South,171,4.0,15.4,60,0.00,,---,0.23,VWS V14.00,2013-02-19 20:08:00,
2013-02-19 15:14:00,49.2,35.0,29.76,WNW,285,0.0,14.9,58,0.00,,---,0.23,VWS V14.00,2013-02-19 20:14:00,
2013-02-19 15:19:00,49.4,34.8,29.76,NW,306,3.1,18.1,57,0.00,,---,0.23,VWS V14.00,2013-02-19 20:19:00,
2013-02-19 15:24:00,49.9,33.9,29.76,WNW,282,3.6,15.4,54,0.00,,---,0.23,VWS V14.00,2013-02-19 20:24:00,
2013-02-19 15:29:00,50.6,34.6,29.76,NNW,331,0.0,15.4,54,0.00,,---,0.23,VWS V14.00,2013-02-19 20:29:00,
2013-02-19 15:34:00,50.8,33.8,29.76,SSW,210,2.7,14.9,52,0.00,,---,0.23,VWS V14.00,2013-02-19 20:34:00,
2013-02-19 15:39:00,50.8,33.3,29.76,West,260,2.7,14.9,51,0.00,,---,0.23,VWS V14.00,2013-02-19 20:39:00,
2013-02-19 15:44:00,52.1,35.5,29.76,NW,324,2.2,15.4,53,0.00,,---,0.23,VWS V14.00,2013-02-19 20:44:00,
2013-02-19 15:49:00,53.1,33.5,29.76,SSW,205,6.3,16.3,47,0.00,,---,0.23,VWS V14.00,2013-02-19 20:49:00,
2013-02-19 15:54:00,53.5,33.2,29.76,WSW,252,4.0,15.8,46,0.00,,---,0.23,VWS V14.00,2013-02-19 20:54:00,
2013-02-19 15:59:00,53.9,33.6,29.73,NW,311,2.7,16.7,46,0.00,,---,0.23,VWS V14.00,2013-02-19 20:59:00,
2013-02-19 16:05:00,53.5,32.7,29.73,WSW,246,4.0,15.4,45,0.00,,---,0.23,VWS V14.00,2013-02-19 21:05:00,
2013-02-19 16:10:00,53.7,32.3,29.73,NW,316,2.2,12.2,44,0.00,,---,0.23,VWS V14.00,2013-02-19 21:10:00,
2013-02-19 16:15:00,53.5,32.7,29.73,SE,139,8.7,21.9,45,0.00,,---,0.23,VWS V14.00,2013-02-19 21:15:00,
2013-02-19 16:20:00,53.5,31.6,29.73,SW,233,2.7,13.1,43,0.00,,---,0.23,VWS V14.00,2013-02-19 21:20:00,
2013-02-19 16:25:00,53.1,31.2,29.73,South,183,4.0,20.1,43,0.00,,---,0.23,VWS V14.00,2013-02-19 21:25:00,
2013-02-19 16:30:00,53.7,32.9,29.73,West,268,2.7,12.7,45,0.00,,---,0.23,VWS V14.00,2013-02-19 21:30:00,
2013-02-19 16:35:00,53.7,31.7,29.73,NW,309,3.6,17.2,43,0.00,,---,0.23,VWS V14.00,2013-02-19 21:35:00,
2013-02-19 16:41:00,53.3,30.8,29.73,SSE,151,5.8,15.8,42,0.00,,---,0.23,VWS V14.00,2013-02-19 21:41:00,
2013-02-19 16:46:00,53.3,31.4,29.73,SSW,202,5.4,17.6,43,0.00,,---,0.23,VWS V14.00,2013-02-19 21:46:00,
2013-02-19 16:51:00,53.0,31.6,29.73,NW,310,3.1,16.3,44,0.00,,---,0.23,VWS V14.00,2013-02-19 21:51:00,
2013-02-19 16:56:00,52.6,32.4,29.73,SSW,194,3.1,16.3,46,0.00,,---,0.23,VWS V14.00,2013-02-19 21:56:00,
2013-02-19 17:01:00,52.4,32.3,29.76,West,265,4.0,14.0,46,0.00,,---,0.23,VWS V14.00,2013-02-19 22:01:00,
2013-02-19 17:06:00,52.2,31.5,29.76,SSE,152,3.6,15.8,45,0.00,,---,0.23,VWS V14.00,2013-02-19 22:06:00,
2013-02-19 17:11:00,52.1,31.4,29.76,SE,124,2.7,13.1,45,0.00,,---,0.23,VWS V14.00,2013-02-19 22:11:00,
2013-02-19 17:16:00,52.1,31.9,29.76,SSW,192,4.9,15.8,46,0.00,,---,0.23,VWS V14.00,2013-02-19 22:16:00,
2013-02-19 17:21:00,51.9,32.3,29.76,SE,127,6.3,16.3,47,0.00,,---,0.23,VWS V14.00,2013-02-19 22:21:00,
2013-02-19 17:26:00,51.5,32.5,29.76,SSE,167,4.0,18.1,48,0.00,,---,0.23,VWS V14.00,2013-02-19 22:26:00,
2013-02-19 17:32:00,51.3,32.3,29.76,WNW,285,3.1,15.8,48,0.00,,---,0.23,VWS V14.00,2013-02-19 22:32:00,
2013-02-19 17:37:00,51.3,32.3,29.76,SW,227,2.7,15.8,48,0.00,,---,0.23,VWS V14.00,2013-02-19 22:37:00,
2013-02-19 17:42:00,51.0,31.5,29.76,SSW,194,3.1,15.8,47,0.00,,---,0.23,VWS V14.00,2013-02-19 22:42:00,
2013-02-19 17:47:00,50.8,31.3,29.76,South,176,5.8,16.3,47,0.00,,---,0.23,VWS V14.00,2013-02-19 22:47:00,
2013-02-19 17:52:00,50.4,31.5,29.76,WNW,288,2.7,14.0,48,0.00,,---,0.23,VWS V14.00,2013-02-19 22:52:00,
2013-02-19 17:57:00,50.3,31.3,29.76,South,169,3.6,14.0,48,0.00,,---,0.23,VWS V14.00,2013-02-19 22:57:00,
2013-02-19 18:02:00,50.1,31.2,29.76,SE,137,0.0,14.9,48,0.00,,---,0.23,VWS V14.00,2013-02-19 23:02:00,
2013-02-19 18:07:00,49.9,31.5,29.76,South,182,0.0,14.9,49,0.00,,---,0.23,VWS V14.00,2013-02-19 23:07:00,
2013-02-19 18:12:00,49.4,31.0,29.76,WSW,246,0.0,10.0,49,0.00,,---,0.23,VWS V14.00,2013-02-19 23:12:00,
2013-02-19 18:18:00,49.2,30.9,29.76,South,186,0.0,13.1,49,0.00,,---,0.23,VWS V14.00,2013-02-19 23:18:00,
2013-02-19 18:23:00,49.0,30.7,29.76,West,276,0.0,14.0,49,0.00,,---,0.23,VWS V14.00,2013-02-19 23:23:00,
2013-02-19 18:28:00,48.6,30.4,29.79,West,276,0.0,14.0,49,0.00,,---,0.23,VWS V14.00,2013-02-19 23:28:00,
2013-02-19 18:33:00,48.5,30.2,29.79,West,276,0.0,10.0,49,0.00,,---,0.23,VWS V14.00,2013-02-19 23:33:00,
2013-02-19 18:38:00,48.3,30.0,29.79,West,276,0.0,10.0,49,0.00,,---,0.23,VWS V14.00,2013-02-19 23:38:00,
2013-02-19 18:43:00,47.7,30.0,29.79,West,278,0.0,10.0,50,0.00,,---,0.23,VWS V14.00,2013-02-19 23:43:00,
2013-02-19 18:48:00,47.4,29.7,29.79,West,276,0.0,10.0,50,0.00,,---,0.23,VWS V14.00,2013-02-19 23:48:00,
2013-02-19 18:53:00,47.0,30.3,29.79,West,276,0.0,10.0,52,0.00,,---,0.23,VWS V14.00,2013-02-19 23:53:00,
2013-02-19 18:58:00,46.5,30.3,29.79,West,276,0.0,10.0,53,0.00,,---,0.23,VWS V14.00,2013-02-19 23:58:00,
2013-02-19 19:04:00,45.9,30.2,29.79,West,276,0.0,10.0,54,0.00,,---,0.23,VWS V14.00,2013-02-20 00:04:00,
2013-02-19 19:09:00,45.0,30.7,29.79,West,276,0.0,10.0,57,0.00,,---,0.23,VWS V14.00,2013-02-20 00:09:00,
2013-02-19 19:14:00,44.3,30.9,29.82,West,278,0.0,10.0,59,0.00,,---,0.23,VWS V14.00,2013-02-20 00:14:00,
2013-02-19 19:19:00,43.8,31.2,29.82,West,276,0.0,10.0,61,0.00,,---,0.23,VWS V14.00,2013-02-20 00:19:00,
2013-02-19 19:24:00,43.8,30.8,29.82,West,276,0.0,10.0,60,0.00,,---,0.23,VWS V14.00,2013-02-20 00:24:00,
2013-02-19 19:29:00,43.6,30.2,29.82,West,276,0.0,10.0,59,0.00,,---,0.23,VWS V14.00,2013-02-20 00:29:00,
2013-02-19 19:34:00,43.2,26.8,29.82,WNW,299,0.0,10.0,52,0.00,,---,0.23,VWS V14.00,2013-02-20 00:34:00,
2013-02-19 19:40:00,43.8,24.9,29.82,West,278,0.0,12.7,47,0.00,,---,0.23,VWS V14.00,2013-02-20 00:40:00,
2013-02-19 19:45:00,44.1,20.8,29.82,NW,326,0.0,13.1,39,0.00,,---,0.23,VWS V14.00,2013-02-20 00:45:00,
2013-02-19 19:50:00,44.7,19.4,29.82,North,349,0.0,10.0,36,0.00,,---,0.23,VWS V14.00,2013-02-20 00:50:00,
2013-02-19 19:55:00,45.4,15.8,29.82,NW,325,0.0,10.0,30,0.00,,---,0.23,VWS V14.00,2013-02-20 00:55:00,
2013-02-19 20:00:00,45.8,13.7,29.82,NNW,335,3.1,13.6,27,0.00,,---,0.23,VWS V14.00,2013-02-20 01:00:00,
2013-02-19 20:05:00,46.3,11.5,29.82,NNW,328,3.1,15.4,24,0.00,,---,0.23,VWS V14.00,2013-02-20 01:05:00,
2013-02-19 20:10:00,46.8,12.0,29.82,NW,323,4.0,14.0,24,0.00,,---,0.23,VWS V14.00,2013-02-20 01:10:00,
2013-02-19 20:15:00,47.0,10.2,29.82,North,357,5.4,16.3,22,0.00,,---,0.23,VWS V14.00,2013-02-20 01:15:00,
2013-02-19 20:21:00,47.0,10.2,29.82,NNW,332,3.6,15.8,22,0.00,,---,0.23,VWS V14.00,2013-02-20 01:21:00,
2013-02-19 20:26:00,47.0,10.2,29.82,NW,311,3.1,15.8,22,0.00,,---,0.23,VWS V14.00,2013-02-20 01:26:00,
2013-02-19 20:31:00,47.2,9.3,29.85,WNW,298,2.2,14.0,21,0.00,,---,0.23,VWS V14.00,2013-02-20 01:31:00,
2013-02-19 20:36:00,47.0,10.2,29.85,WNW,302,4.9,15.8,22,0.00,,---,0.23,VWS V14.00,2013-02-20 01:36:00,
2013-02-19 20:41:00,46.8,10.0,29.85,NW,322,3.1,15.8,22,0.00,,---,0.23,VWS V14.00,2013-02-20 01:41:00,
2013-02-19 20:46:00,46.7,9.9,29.85,NW,322,3.1,15.8,22,0.00,,---,0.23,VWS V14.00,2013-02-20 01:46:00,
2013-02-19 20:51:00,46.3,9.6,29.85,NW,324,2.7,15.4,22,0.00,,---,0.23,VWS V14.00,2013-02-20 01:51:00,
2013-02-19 20:56:00,46.1,9.4,29.85,WNW,297,4.0,15.4,22,0.00,,---,0.23,VWS V14.00,2013-02-20 01:56:00,
2013-02-19 21:02:00,45.9,9.2,29.85,NW,320,2.7,12.7,22,0.00,,---,0.23,VWS V14.00,2013-02-20 02:02:00,
2013-02-19 21:07:00,45.6,8.9,29.85,ESE,115,2.7,13.1,22,0.00,,---,0.23,VWS V14.00,2013-02-20 02:07:00,
2013-02-19 21:12:00,45.0,8.5,29.85,ESE,115,0.0,10.0,22,0.00,,---,0.23,VWS V14.00,2013-02-20 02:12:00,
2013-02-19 21:17:00,44.5,8.0,29.85,NNW,329,2.7,13.6,22,0.00,,---,0.23,VWS V14.00,2013-02-20 02:17:00,
2013-02-19 21:22:00,44.7,8.2,29.85,WNW,299,2.7,12.7,22,0.00,,---,0.23,VWS V14.00,2013-02-20 02:22:00,
2013-02-19 21:27:00,44.9,8.3,29.88,NNW,327,0.0,12.7,22,0.00,,---,0.23,VWS V14.00,2013-02-20 02:27:00,
2013-02-19 21:32:00,44.9,8.3,29.88,NNW,343,3.6,13.6,22,0.00,,---,0.23,VWS V14.00,2013-02-20 02:32:00,
2013-02-19 21:37:00,44.9,8.3,29.88,NW,325,0.0,14.9,22,0.00,,---,0.23,VWS V14.00,2013-02-20 02:37:00,
2013-02-19 21:42:00,44.3,7.9,29.88,NNW,343,0.0,10.0,22,0.00,,---,0.23,VWS V14.00,2013-02-20 02:42:00,
2013-02-19 21:47:00,44.1,7.7,29.88,NNE,17,0.0,12.7,22,0.00,,---,0.23,VWS V14.00,2013-02-20 02:47:00,
2013-02-19 21:53:00,43.8,7.4,29.88,North,11,0.0,10.0,22,0.00,,---,0.23,VWS V14.00,2013-02-20 02:53:00,
2013-02-19 21:58:00,43.6,10.1,29.88,North,11,0.0,10.0,25,0.00,,---,0.23,VWS V14.00,2013-02-20 02:58:00,
2013-02-19 22:03:00,43.1,9.6,29.88,North,11,0.0,10.0,25,0.00,,---,0.23,VWS V14.00,2013-02-20 03:03:00,
2013-02-19 22:08:00,42.7,9.3,29.88,North,11,0.0,10.0,25,0.00,,---,0.23,VWS V14.00,2013-02-20 03:08:00,
2013-02-19 22:13:00,41.8,11.1,29.88,North,11,0.0,10.0,28,0.00,,---,0.23,VWS V14.00,2013-02-20 03:13:00,
2013-02-19 22:18:00,41.4,9.1,29.88,North,11,0.0,10.0,26,0.00,,---,0.23,VWS V14.00,2013-02-20 03:18:00,
2013-02-19 22:23:00,41.1,8.8,29.88,North,11,0.0,10.0,26,0.00,,---,0.23,VWS V14.00,2013-02-20 03:23:00,
2013-02-19 22:28:00,40.7,10.2,29.85,North,11,0.0,10.0,28,0.00,,---,0.23,VWS V14.00,2013-02-20 03:28:00,
2013-02-19 22:33:00,40.4,9.9,29.85,North,11,0.0,10.0,28,0.00,,---,0.23,VWS V14.00,2013-02-20 03:33:00,
2013-02-19 22:39:00,40.2,9.7,29.85,North,11,0.0,10.0,28,0.00,,---,0.23,VWS V14.00,2013-02-20 03:39:00,
2013-02-19 22:44:00,40.0,9.5,29.88,North,11,0.0,10.0,28,0.00,,---,0.23,VWS V14.00,2013-02-20 03:44:00,
2013-02-19 22:49:00,40.0,9.5,29.88,North,349,0.0,10.0,28,0.00,,---,0.23,VWS V14.00,2013-02-20 03:49:00,
2013-02-19 22:54:00,40.0,9.5,29.88,North,349,0.0,10.0,28,0.00,,---,0.23,VWS V14.00,2013-02-20 03:54:00,
2013-02-19 22:59:00,40.2,8.1,29.88,NNW,343,0.0,10.0,26,0.00,,---,0.23,VWS V14.00,2013-02-20 03:59:00,
2013-02-19 23:04:00,40.4,8.2,29.88,NNW,341,0.0,10.0,26,0.00,,---,0.23,VWS V14.00,2013-02-20 04:04:00,
2013-02-19 23:09:00,40.4,8.2,29.88,NW,324,3.1,13.6,26,0.00,,---,0.23,VWS V14.00,2013-02-20 04:09:00,
2013-02-19 23:14:00,40.5,8.4,29.88,NW,324,0.0,13.1,26,0.00,,---,0.23,VWS V14.00,2013-02-20 04:14:00,
2013-02-19 23:19:00,40.5,8.4,29.88,NW,325,0.0,13.1,26,0.00,,---,0.23,VWS V14.00,2013-02-20 04:19:00,
2013-02-19 23:24:00,40.4,5.5,29.88,NW,325,0.0,10.0,23,0.00,,---,0.23,VWS V14.00,2013-02-20 04:24:00,
2013-02-19 23:29:00,40.2,8.1,29.88,NW,326,0.0,10.0,26,0.00,,---,0.23,VWS V14.00,2013-02-20 04:29:00,
2013-02-19 23:35:00,40.0,7.9,29.88,NW,326,0.0,10.0,26,0.00,,---,0.23,VWS V14.00,2013-02-20 04:35:00,
2013-02-19 23:40:00,39.5,7.4,29.88,NW,326,0.0,10.0,26,0.00,,---,0.23,VWS V14.00,2013-02-20 04:40:00,
2013-02-19 23:45:00,38.9,9.4,29.88,NW,326,0.0,10.0,29,0.00,,---,0.23,VWS V14.00,2013-02-20 04:45:00,
2013-02-19 23:50:00,38.2,8.8,29.88,NW,326,0.0,10.0,29,0.00,,---,0.23,VWS V14.00,2013-02-20 04:50:00,
2013-02-19 23:55:00,37.8,9.2,29.88,NW,326,0.0,10.0,30,0.00,,---,0.23,VWS V14.00,2013-02-20 04:55:00,